TimeCET,TemperatureF,Dew PointF,Humidity,Sea Level PressureIn,VisibilityMPH,Wind Direction,Wind SpeedMPH,Gust SpeedMPH,PrecipitationIn,Events,Conditions,WindDirDegrees,DateUTC
12:00 AM,42.8,35.6,76,29.77,6.2,SW,12.7,-,N/A,,Partly Cloudy,220,2013-11-03 23:00:00
12:30 AM,42.8,35.6,76,29.74,6.2,South,5.8,-,N/A,,Scattered Clouds,190,2013-11-03 23:30:00
1:00 AM,41,34,68,29.79,31,South,4.5,,,,Partly Cloudy,180,2013-11-04 00:00:00
1:00 AM,41.0,33.8,76,29.74,6.2,South,6.9,-,N/A,,Partly Cloudy,190,2013-11-04 00:00:00
1:30 AM,41.0,35.6,81,29.74,6.2,South,8.1,-,N/A,,Partly Cloudy,190,2013-11-04 00:30:00
2:00 AM,41.0,35.6,81,29.74,-9999.0,South,8.1,-,N/A,,Clear,190,2013-11-04 01:00:00
2:30 AM,41.0,33.8,76,29.74,-9999.0,South,9.2,-,N/A,,Clear,180,2013-11-04 01:30:00
3:00 AM,39.2,33.8,81,29.71,-9999.0,South,9.2,-,N/A,,Clear,180,2013-11-04 02:00:00
3:30 AM,41.0,35.6,81,29.68,-9999.0,SSW,13.8,-,N/A,,Clear,200,2013-11-04 02:30:00
4:00 AM,41.0,33.8,76,29.68,-9999.0,SSW,15.0,-,N/A,,Clear,210,2013-11-04 03:00:00
4:30 AM,41.0,33.8,76,29.68,-9999.0,SSW,11.5,-,N/A,,Clear,200,2013-11-04 03:30:00
5:00 AM,41.0,33.8,76,29.68,-9999.0,South,13.8,-,N/A,,Clear,190,2013-11-04 04:00:00
5:30 AM,41.0,33.8,76,29.65,-9999.0,South,16.1,-,N/A,,Clear,190,2013-11-04 04:30:00
6:00 AM,41.0,33.8,76,29.65,-9999.0,South,11.5,-,N/A,,Clear,180,2013-11-04 05:00:00
6:30 AM,41.0,33.8,76,29.62,-9999.0,South,9.2,-,N/A,,Clear,170,2013-11-04 05:30:00
7:00 AM,40,34,72,29.65,44,SSE,4.5,,,,Mostly Cloudy,160,2013-11-04 06:00:00
7:00 AM,41.0,33.8,76,29.62,-9999.0,SSE,8.1,-,N/A,,Clear,160,2013-11-04 06:00:00
7:30 AM,41.0,33.8,76,29.59,-9999.0,South,10.4,-,N/A,,Clear,180,2013-11-04 06:30:00
8:00 AM,41.0,35.6,81,29.59,-9999.0,South,12.7,-,N/A,,Clear,170,2013-11-04 07:00:00
8:30 AM,42.8,35.6,76,29.56,-9999.0,South,12.7,-,N/A,,Clear,170,2013-11-04 07:30:00
9:00 AM,44.6,35.6,71,29.53,-9999.0,South,13.8,-,N/A,,Clear,170,2013-11-04 08:00:00
9:30 AM,44.6,35.6,71,29.53,-9999.0,South,16.1,-,N/A,,Clear,170,2013-11-04 08:30:00
10:00 AM,46.4,35.6,66,29.50,-9999.0,South,15.0,-,N/A,,Clear,170,2013-11-04 09:00:00
10:30 AM,48.2,35.6,62,29.50,-9999.0,South,11.5,-,N/A,,Clear,170,2013-11-04 09:30:00
11:00 AM,48.2,35.6,62,29.47,-9999.0,South,15.0,-,N/A,,Clear,170,2013-11-04 10:00:00
11:30 AM,48.2,35.6,62,29.44,-9999.0,South,16.1,-,N/A,,Clear,170,2013-11-04 10:30:00
12:00 PM,51.8,35.6,54,29.42,-9999.0,South,16.1,-,N/A,,Clear,170,2013-11-04 11:00:00
12:30 PM,53.6,35.6,51,29.39,-9999.0,South,16.1,-,N/A,,Clear,170,2013-11-04 11:30:00
1:00 PM,52,35,40,29.41,47,South,11.2,,,,Scattered Clouds,170,2013-11-04 12:00:00
1:00 PM,51.8,35.6,54,29.39,-9999.0,South,13.8,-,N/A,,Clear,170,2013-11-04 12:00:00
1:30 PM,51.8,35.6,54,29.39,-9999.0,South,16.1,-,N/A,,Clear,170,2013-11-04 12:30:00
2:00 PM,51.8,35.6,54,29.36,-9999.0,South,16.1,-,N/A,,Clear,170,2013-11-04 13:00:00
2:30 PM,51.8,37.4,58,29.36,-9999.0,South,13.8,-,N/A,,Clear,170,2013-11-04 13:30:00
3:00 PM,51.8,39.2,62,29.36,-9999.0,South,13.8,-,N/A,,Clear,170,2013-11-04 14:00:00
3:30 PM,51.8,39.2,62,29.33,-9999.0,SSE,10.4,-,N/A,,Clear,160,2013-11-04 14:30:00
4:00 PM,50.0,39.2,66,29.33,6.2,South,13.8,-,N/A,,Scattered Clouds,170,2013-11-04 15:00:00
4:30 PM,50.0,37.4,62,29.33,6.2,South,9.2,-,N/A,,Partly Cloudy,180,2013-11-04 15:30:00
5:00 PM,50.0,39.2,66,29.33,6.2,South,9.2,-,N/A,,Scattered Clouds,180,2013-11-04 16:00:00
5:30 PM,50.0,39.2,66,29.33,6.2,South,11.5,-,N/A,,Scattered Clouds,170,2013-11-04 16:30:00
6:00 PM,48.2,39.2,71,29.33,6.2,South,10.4,-,N/A,,Partly Cloudy,170,2013-11-04 17:00:00
6:30 PM,48.2,39.2,71,29.30,-9999.0,SSE,6.9,-,N/A,,Clear,150,2013-11-04 17:30:00
7:00 PM,49,40,62,29.33,37,SSE,6.7,,,,Mostly Cloudy,160,2013-11-04 18:00:00
7:00 PM,48.2,39.2,71,29.30,-9999.0,SSE,10.4,-,N/A,,Clear,160,2013-11-04 18:00:00
7:30 PM,48.2,41.0,76,29.30,-9999.0,South,11.5,-,N/A,,Clear,170,2013-11-04 18:30:00
8:00 PM,48.2,41.0,76,29.33,-9999.0,South,9.2,-,N/A,,Clear,170,2013-11-04 19:00:00
8:30 PM,48.2,41.0,76,29.33,-9999.0,South,11.5,-,N/A,,Clear,170,2013-11-04 19:30:00
9:00 PM,50.0,41.0,71,29.33,-9999.0,South,9.2,-,N/A,,Clear,180,2013-11-04 20:00:00
9:30 PM,48.2,39.2,71,29.30,-9999.0,South,10.4,-,N/A,,Clear,180,2013-11-04 20:30:00
10:00 PM,48.2,39.2,71,29.33,6.2,South,8.1,-,N/A,,Partly Cloudy,180,2013-11-04 21:00:00
10:30 PM,50.0,41.0,71,29.33,6.2,South,8.1,-,N/A,,Mostly Cloudy,180,2013-11-04 21:30:00
11:00 PM,50.0,41.0,71,29.33,6.2,SSW,9.2,-,N/A,,Scattered Clouds,200,2013-11-04 22:00:00
11:30 PM,50.0,41.0,71,29.33,6.2,SSW,11.5,-,N/A,,Scattered Clouds,200,2013-11-04 22:30:00